星链-31034 (STARLINK-31034 )

导读

STARLINK-31034是美国星链互联网星座的成员卫星,于2024年1月14日成功发射。星链计划旨在构建全球卫星互联网系统,为偏远地区、海上及空中提供高速网络服务,该卫星的入轨进一步扩充了星链星座的规模,提升星座全球覆盖密度与服务能力。

基本信息
目录编号:
58785
目录名称:
STARLINK-31034
国际标识:
2024-011W
轨道中心:
EARTH
卫星名称:
星链-31034
卫星全名:
星链-31034 (STARLINK-31034 )
卫星状态:
在轨 (已飞行886 天)
发射日期:
2024-01-14 UTC
国别 :
美国 (US)
星等 :
--
轨道信息
数据来源 国际轨道数据 AOE轨道数据
星历时间 2026-06-17T01:10:51+0800
1天前
查看轨道信息
2026-06-17T06:00:00+0800
1天前
查看轨道信息
半长轴 6840.896km 6840.905km
偏心率 0.0001637 0.0001641
轨道倾角 53.160° 53.158°
近地点辐角 88.746° 73.660°
升交点赤经 169.823° 168.882°
平近点角 271.373° 316.241°
近地点 461.639km 461.645km
远地点 463.879km 463.891km
周期 93.849分钟 93.849分钟
每日圈数 15.343813 15.343784
详细信息
固有亮度:
5
最大亮度:
0.3
卫星平台:
Starlink v2.0 mini
覆盖范围:
全球
运营商:
太空探索技术公司
运营商所在国:
美国
制造商(研发单位):
太空探索技术公司
制造商所在国:
美国
使用方式:
暂无
卫星简介
星链(Starlink)计划是由太空探索技术公司(SpaceX)提出的一个巨型低轨卫星互联网星座项目,计划在2019年至2024年间在太空搭建由约1.2万颗卫星组成的“星链”网络,其中1584颗将部署在地球上空550千米处的近地轨道,并从2020年开始工作。该卫星仍在工作。
2D轨道图
3D轨道图
轨道高度分析图
轨道倾角分析图
轨道综合分析图
查看轨道综合分析图